sat.trackr.live / text

‹ back to catalog

PERUSAT 1

NORAD 41770 · 2016-058A

PAYLOAD ACTIVE UNKNOWN

§ Identity

Operator
Country
PERU
Launch date
2016-09-16
Launch site
FRGUI
Launch vehicle
Mass (kg)
RCS (m²)
2.33

External: N2YO · Heavens-Above · Gunter

§ Orbital elements

Epoch: 2026-09-20T04:21:28.020384Z

Period
98.73 min
Inclination
98.1944°
Eccentricity
0.0001409
Mean motion
14.58560490 rev/d
Perigee alt
696.8 km
Apogee alt
698.8 km
Semi-major
7,076.0 km
B*
5.7734e-5
RAAN
335.5655°
Arg perigee
82.8487°
Mean anomaly
277.2872°
Rev number
53,294

§ Raw data

PERUSAT 11 41770U 16058A   26263.18157431  .00000223  00000+0  57734-4 0  99942 41770  98.1944 335.5655 0001409  82.8487 277.2872 14.58560490532949

JSON: /api/v1/satellites/41770 · /tle

For live sub-satellite position, see the globe view (requires WebGL).

§ Visibility from observer

Set your observer location to see the next 7 days of passes ≥ 10°. The values pass through the URL so the page stays shareable.

No JS? Fill the form by hand. The geolocation button needs JavaScript.